Weather History for CWWX - January, 2013

Change the Weather History Date:

Thursday, January 3, 2013

  Actual Average Record
Temperature  
Mean Temperature 28 °F -  
Max Temperature 32 °F - - ()
Min Temperature 23 °F - - ()
Degree Days  
Heating Degree Days 38    
Moisture  
Dew Point 25 °F    
Average Humidity 81    
Maximum Humidity 92    
Minimum Humidity 58    
Precipitation  
Precipitation 0.00 in - - ()
Sea Level Pressure  
Sea Level Pressure 29.93 in    
Wind  
Wind Speed - ()    
Max Wind Speed -    
Max Gust Speed -    
T = Trace of Precipitation, MM = Missing Value Source: Averaged Metar Reports

Daily Weather History Graph

Daily Weather History Graph

Search for Another Location

Airport or City:

Trip Planner

Search our weather history database for the weather conditions in past years. The results will help you decide how hot, cold, wet, or windy it might be!

Date:

Astronomy

Jan. 03, 2013 Rise Set
Actual Time 8:06 AM EST 4:57 PM EST
Civil Twilight 7:32 AM EST 5:30 PM EST
Nautical Twilight 6:55 AM EST 6:08 PM EST
Astronomical Twilight 6:19 AM EST 6:43 PM EST
Moon 11:51 PM EST (1/3) 10:58 AM EST (1/3)
Length of Visible Light 9h 58m
Length of Day
8h 50m
Waning Gibbous, 65% of the Moon is Illuminated
Jan 3
Waning Gibbous
Jan 4
Last Quarter
Jan 11
New
Jan 18
First Quarter
Jan 26
Full

Hourly Weather History & Observations

Time (EST) Temp. Dew Point Humidity Pressure Visibility Wind Dir Wind Speed Gust Speed Precip Events Conditions
12:00 AM 25.9 °F 21.9 °F 85% 30.08 in - North - - N/A   Unknown
1:00 AM 25 °F 22 °F 85% 30.05 in - Calm Calm - -  
1:00 AM 25.3 °F 22.3 °F 88% 30.05 in - North - - N/A   Unknown
2:00 AM 23.7 °F 21.2 °F 90% 30.04 in - North - - N/A   Unknown
3:00 AM 27.9 °F 22.5 °F 80% 30.04 in - North - - N/A   Unknown
4:00 AM 28.0 °F 22.1 °F 78% 30.01 in - North - - N/A   Unknown
5:00 AM 28.9 °F 22.8 °F 78% 29.98 in - North - - N/A   Unknown
6:00 AM 29.8 °F 23.5 °F 77% 29.96 in - North - - N/A   Unknown
7:00 AM 32 °F 27 °F 74% 29.94 in - Calm Calm - -  
7:00 AM 31.6 °F 26.8 °F 82% 29.94 in - North - - N/A   Unknown
8:00 AM 30.9 °F 27.9 °F 88% 29.93 in - North - - N/A   Unknown
9:00 AM 30.2 °F 28.0 °F 92% 29.92 in - North - - N/A   Unknown
10:00 AM 30.2 °F 27.9 °F 91% 29.91 in - North - - N/A   Unknown
11:00 AM 30.7 °F 27.5 °F 88% 29.90 in - North - - N/A   Unknown
12:00 PM 30.6 °F 26.6 °F 85% 29.88 in - North - - N/A   Unknown
1:00 PM 32 °F 28 °F 79% 29.85 in - Calm Calm - -  
1:00 PM 31.8 °F 28.0 °F 86% 29.85 in - North - - N/A   Unknown
2:00 PM 32.0 °F 27.9 °F 85% 29.84 in - North - - N/A   Unknown
3:00 PM 31.3 °F 25.9 °F 80% 29.84 in - North - - N/A   Unknown
4:00 PM 31.3 °F 27.3 °F 85% 29.86 in - North - - N/A   Unknown
5:00 PM 31.3 °F 26.2 °F 82% 29.88 in - North - - N/A   Unknown
6:00 PM 31.6 °F 24.3 °F 74% 29.91 in - North - - N/A   Unknown
7:00 PM 31 °F 22 °F 58% 29.91 in - Calm Calm - -  
7:00 PM 30.7 °F 21.9 °F 70% 29.91 in - North - - N/A   Unknown
8:00 PM 30.4 °F 23.2 °F 75% 29.93 in - North - - N/A   Unknown
9:00 PM 30.7 °F 22.8 °F 72% 29.92 in - North - - N/A   Unknown
10:00 PM 30.6 °F 24.3 °F 77% 29.92 in - North - - N/A   Unknown
11:00 PM 30.6 °F 22.6 °F 72% 29.90 in - North - - N/A   Unknown